Stations météo

réclame
Mon MeteoGroup
Boulogne, France (7002): Température de l'air & dewpoint: 12.06.2018 13:00:00 - 18.06.2018 13:00:00 (CEST)Boulogne, France (7002): Vitesse du vent & gusts: 12.06.2018 13:00:00 - 18.06.2018 13:00:00 (CEST)Boulogne, France (7002): Direction du vent: 12.06.2018 13:00:00 - 18.06.2018 13:00:00 (CEST)Boulogne, France (7002): reduced air pressure: 12.06.2018 13:00:00 - 18.06.2018 13:00:00 (CEST)Boulogne, France (7002): visibility: 12.06.2018 13:00:00 - 18.06.2018 13:00:00 (CEST)Boulogne, France (7002): Quantités de précipitations: 12.06.2018 13:00:00 - 18.06.2018 13:00:00 (CEST)
Date & Time tt [°C] td [°C] ff [km/h] ff [knt] fx [km/h] fx [knt] dd ppp [hPa] vv [km] rr [mm]
18.06.2018 13:00:00 14,5 13,0 32 18 50 27 WSW 1021,7 - 0,0
18.06.2018 12:00:00 14,0 13,0 37 20 51 28 WSW 1021,2 - 0,0
18.06.2018 11:00:00 13,5 13,3 35 19 55 30 SW 1020,9 6 0,0
18.06.2018 10:00:00 13,3 13,0 39 21 56 31 SW 1020,5 - 0,0
18.06.2018 09:00:00 13,8 13,8 28 15 42 23 WSW 1020,0 - 0,0
18.06.2018 08:00:00 13,9 13,9 28 15 45 24 SW 1019,7 6 0,0
18.06.2018 07:00:00 14,1 14,1 26 14 45 24 SW 1019,2 - 0,0
18.06.2018 06:00:00 14,2 14,2 30 16 48 26 SW 1019,0 - 0,0
18.06.2018 05:00:00 14,4 14,2 31 17 48 26 SW 1018,5 8 0,0
18.06.2018 04:00:00 14,6 14,4 27 15 51 27 SW 1018,8 - 0,2
18.06.2018 03:00:00 14,6 14,4 27 15 48 26 SW 1018,8 - 0,4
18.06.2018 02:00:00 14,5 14,2 23 12 46 25 SSW 1019,1 - 0,4
18.06.2018 01:00:00 14,3 13,7 21 11 42 23 SSW 1019,4 - 0,0
18.06.2018 00:00:00 14,4 12,9 30 16 44 24 SW 1019,6 - 0,0
17.06.2018 23:00:00 15,1 11,5 20 11 40 22 SSW 1019,6 16 0,0
17.06.2018 22:00:00 14,3 11,8 24 13 44 24 SW 1019,4 - 0,0
17.06.2018 21:00:00 14,6 11,0 18 10 36 19 SSW 1019,4 - 0,0
17.06.2018 20:00:00 14,4 11,4 24 13 40 21 SW 1019,7 16 0,0
17.06.2018 19:00:00 14,4 11,2 26 14 42 23 WSW 1019,7 - 0,0
17.06.2018 18:00:00 14,7 11,1 28 15 46 25 SW 1019,3 - 0,0
17.06.2018 17:00:00 15,0 11,6 31 17 48 26 WSW 1019,5 - 0,0
17.06.2018 16:00:00 15,0 11,8 35 19 51 28 WSW 1019,4 - 0,0
17.06.2018 15:00:00 14,5 11,6 35 19 51 27 WSW 1019,3 - 0,0
17.06.2018 14:00:00 14,8 11,6 37 20 55 30 WSW 1019,0 8 0,0
17.06.2018 13:00:00 14,7 11,8 35 19 50 27 WSW 1018,6 - 0,0
17.06.2018 12:00:00 14,5 11,5 35 19 48 26 WSW 1018,5 - 0,0
17.06.2018 11:00:00 13,8 11,5 29 16 45 24 SW 1018,3 10 0,0
17.06.2018 10:00:00 13,9 11,4 28 15 49 26 WSW 1018,3 - 0,0
17.06.2018 09:00:00 13,6 11,5 31 17 50 27 WSW 1017,8 - 0,0
17.06.2018 08:00:00 13,4 11,6 25 13 45 24 WSW 1017,2 - 0,0
17.06.2018 07:00:00 13,3 11,9 29 16 43 23 WSW 1016,7 - 0,0
17.06.2018 06:00:00 13,3 11,9 28 15 46 25 WSW 1016,6 - 0,0
17.06.2018 05:00:00 13,3 11,7 29 15 51 28 WSW 1016,7 - 0,0
17.06.2018 04:00:00 13,4 11,6 29 16 56 30 WSW 1016,6 - 0,0
17.06.2018 03:00:00 13,3 11,4 34 18 55 30 WSW 1016,4 - 0,0
17.06.2018 02:00:00 13,5 11,2 35 19 48 26 WSW 1016,6 10 0,0
17.06.2018 01:00:00 13,8 11,1 29 16 52 28 SW 1016,4 - 0,0
17.06.2018 00:00:00 14,2 11,7 31 17 51 27 SW 1016,5 - 0,0
16.06.2018 23:00:00 14,2 12,1 34 18 51 28 SW 1016,1 18 0,0
16.06.2018 22:00:00 14,6 11,9 29 15 43 23 SW 1016,0 - 0,0
16.06.2018 21:00:00 15,1 10,7 23 12 38 20 SSW 1015,9 - 0,0
16.06.2018 20:00:00 14,9 10,5 20 11 40 22 SW 1016,2 18 0,0
16.06.2018 19:00:00 16,1 10,8 23 13 42 23 SW 1016,1 - 0,0
16.06.2018 18:00:00 16,5 11,8 23 13 42 23 SW 1016,4 - 0,0
16.06.2018 17:00:00 15,4 11,6 27 15 46 25 SW 1016,5 - 0,0
16.06.2018 16:00:00 15,4 11,2 30 16 46 25 WSW 1016,4 - 0,0
16.06.2018 15:00:00 15,0 10,8 31 17 44 24 WSW 1016,4 - 0,0
16.06.2018 14:00:00 14,6 11,2 33 18 46 25 WSW 1016,5 - 0,0
16.06.2018 13:00:00 14,7 11,7 32 17 45 24 WSW 1016,6 - 0,0
16.06.2018 12:00:00 14,1 11,8 29 16 40 21 SW 1016,3 - 0,0
16.06.2018 11:00:00 13,9 11,4 22 12 34 18 WSW 1016,5 8 0,0
16.06.2018 10:00:00 13,9 11,6 19 10 32 18 WSW 1016,3 - 0,0
16.06.2018 09:00:00 13,5 12,4 15 8 29 16 SW 1016,2 - 0,0
16.06.2018 08:00:00 13,3 12,5 18 10 29 16 WSW 1016,2 - 0,0
16.06.2018 07:00:00 13,2 12,4 16 9 26 14 SW 1016,0 - 0,0
16.06.2018 06:00:00 13,2 12,4 13 7 21 11 SW 1015,7 - 0,0
16.06.2018 05:00:00 13,3 12,5 12 7 31 17 SW 1015,8 8 0,0
16.06.2018 04:00:00 13,2 12,4 23 12 32 17 SW 1016,3 - 0,0
16.06.2018 03:00:00 13,2 12,4 23 12 36 20 SW 1016,4 - 0,0
16.06.2018 02:00:00 13,1 12,0 22 12 32 17 SW 1016,6 10 0,0
16.06.2018 01:00:00 12,7 11,3 14 7 30 16 SW 1016,8 - 0,0
16.06.2018 00:00:00 12,9 11,0 21 12 32 17 WSW 1017,1 - 0,0
15.06.2018 23:00:00 13,0 10,9 17 9 29 16 SW 1017,2 14 0,0
15.06.2018 22:00:00 13,4 10,7 18 10 27 15 SW 1017,0 - 0,0
15.06.2018 21:00:00 14,0 10,4 14 8 31 17 SW 1017,0 - 0,0
15.06.2018 20:00:00 14,2 10,4 18 10 33 18 SW 1017,1 14 0,0
15.06.2018 19:00:00 15,2 11,6 22 12 35 19 SW 1017,3 - 0,0
15.06.2018 18:00:00 15,6 12,5 21 11 33 18 SW 1017,5 - 0,0
15.06.2018 17:00:00 15,4 12,2 19 10 32 17 WSW 1017,8 8 0,0
15.06.2018 16:00:00 16,1 12,5 21 11 32 17 SW 1017,6 - 0,0
15.06.2018 15:00:00 16,2 11,8 20 11 31 17 SW 1017,7 - 0,0
15.06.2018 14:00:00 15,9 11,9 21 11 28 15 WSW 1017,9 10 0,0
15.06.2018 13:00:00 16,4 11,3 13 7 20 11 WSW 1017,5 - 0,0
15.06.2018 12:00:00 15,3 11,3 9 5 20 11 W 1017,3 - 0,0
15.06.2018 11:00:00 14,9 12,8 14 8 24 13 SW 1017,3 8 0,0
15.06.2018 10:00:00 16,1 13,0 11 6 17 9 SSW 1016,9 - 0,0
15.06.2018 09:00:00 15,7 13,7 9 5 13 7 S 1016,7 - 0,0
15.06.2018 08:00:00 14,3 13,3 6 4 11 6 SSE 1016,3 8 0,0
15.06.2018 07:00:00 12,7 12,2 7 4 13 7 SE 1016,2 - 0,0
15.06.2018 06:00:00 12,3 11,7 8 5 13 7 SSE 1015,9 - 0,2
15.06.2018 05:00:00 12,8 12,0 7 4 17 9 S 1015,9 6 0,0
15.06.2018 04:00:00 13,0 12,1 10 5 23 12 S 1015,9 - 0,0
15.06.2018 03:00:00 13,2 12,1 13 7 24 13 SSW 1016,1 - 0,0
15.06.2018 02:00:00 12,9 11,8 16 8 27 15 S 1016,2 10 0,0
15.06.2018 01:00:00 13,1 11,7 12 6 24 13 S 1016,3 - 0,0
15.06.2018 00:00:00 13,6 11,8 11 6 26 14 S 1016,5 - 0,0
14.06.2018 23:00:00 13,7 11,7 13 7 30 16 SSW 1016,3 8 0,0
14.06.2018 22:00:00 14,1 11,8 12 6 39 21 S 1015,8 - 0,0
14.06.2018 21:00:00 14,5 12,0 21 12 39 21 SW 1015,3 - 0,0
14.06.2018 20:00:00 15,0 12,5 26 14 50 27 SW 1014,8 6 0,0
14.06.2018 19:00:00 15,6 13,8 28 15 52 28 SW 1014,4 - 0,0
14.06.2018 18:00:00 15,4 14,3 36 20 61 33 SW 1014,3 - 0,0
14.06.2018 17:00:00 14,7 14,2 32 17 59 32 SW 1013,8 6 0,0
14.06.2018 16:00:00 14,2 13,9 31 17 63 34 SW 1013,9 - 0,0
14.06.2018 15:00:00 13,9 13,6 31 17 62 33 SSW 1013,7 - 1,0
14.06.2018 14:00:00 13,9 13,1 29 16 56 30 SSW 1014,0 1,5 0,2
14.06.2018 13:00:00 15,3 12,4 27 14 61 33 SSW 1014,0 - 0,0
14.06.2018 12:00:00 15,1 12,4 29 16 58 31 SSW 1013,5 - 0,0
14.06.2018 11:00:00 14,8 12,3 27 15 52 28 SW 1013,8 8 0,0
14.06.2018 10:00:00 14,2 12,4 29 16 52 28 SW 1013,8 - 0,0
14.06.2018 09:00:00 14,1 12,8 27 14 50 27 SW 1014,1 - 0,2
14.06.2018 08:00:00 14,6 12,3 21 11 39 21 SW 1013,9 - 0,0
14.06.2018 07:00:00 13,9 11,8 18 10 31 17 S 1013,9 - 0,0
14.06.2018 06:00:00 13,0 10,0 16 9 29 16 S 1014,5 - 0,0
14.06.2018 05:00:00 12,6 8,5 18 10 33 18 S 1015,0 - 0,0
14.06.2018 04:00:00 12,3 7,2 15 8 28 15 SSE 1015,7 - 0,0
14.06.2018 03:00:00 12,3 9,1 13 7 26 14 SSE 1016,3 - 0,0
14.06.2018 02:00:00 12,7 9,7 13 7 23 13 SSE 1016,8 - 0,0
14.06.2018 01:00:00 12,7 9,5 12 6 19 10 S 1017,2 - 0,0
14.06.2018 00:00:00 12,7 9,3 10 6 18 10 S 1017,7 - 0,0
13.06.2018 23:00:00 13,0 9,4 9 5 19 10 S 1018,0 - 0,0
13.06.2018 22:00:00 13,3 9,4 13 7 21 11 WSW 1018,3 - 0,0
13.06.2018 21:00:00 13,8 9,4 12 6 20 11 SW 1018,2 - 0,0
13.06.2018 20:00:00 14,6 9,6 13 7 21 11 WSW 1018,3 - 0,0
13.06.2018 19:00:00 15,9 9,3 11 6 25 14 WSW 1018,5 - 0,0
13.06.2018 18:00:00 15,6 10,6 16 9 24 13 W 1018,7 - 0,0
13.06.2018 17:00:00 15,6 8,8 13 7 24 13 W 1019,0 17 0,0
13.06.2018 16:00:00 15,4 10,2 16 9 23 13 W 1019,3 - 0,0
13.06.2018 15:00:00 15,3 8,8 9 5 23 12 WNW 1019,3 - 0,0
13.06.2018 14:00:00 14,8 9,8 14 8 23 12 NW 1019,8 - 0,0
13.06.2018 13:00:00 14,7 10,9 13 7 22 12 NW 1019,8 - 0,0
13.06.2018 12:00:00 14,2 10,6 11 6 19 11 NW 1019,6 - 0,0
13.06.2018 11:00:00 14,4 11,0 13 7 21 11 NW 1019,9 15 0,0
13.06.2018 10:00:00 13,6 10,2 13 7 20 11 NNW 1019,8 - 0,0
13.06.2018 09:00:00 14,4 9,2 11 6 22 12 NNE 1019,5 - 0,0
13.06.2018 08:00:00 12,9 10,3 9 5 24 13 N 1019,4 10 0,0
13.06.2018 07:00:00 12,3 10,5 10 5 19 11 NNE 1019,2 - 0,0
13.06.2018 06:00:00 11,9 10,3 9 5 20 11 NNE 1019,1 - 0,0
13.06.2018 05:00:00 12,2 10,1 11 6 27 15 N 1018,8 10 0,0
13.06.2018 04:00:00 11,8 9,9 10 5 18 10 N 1018,8 - 0,0
13.06.2018 03:00:00 11,6 9,5 12 7 22 12 NNE 1018,8 - 0,0
13.06.2018 02:00:00 11,1 9,0 9 5 24 13 NNE 1018,8 10 0,0
13.06.2018 01:00:00 11,4 9,0 12 7 28 15 NE 1018,7 - 0,0
13.06.2018 00:00:00 11,6 9,0 8 4 24 13 NNE 1018,8 - 0,0
12.06.2018 23:00:00 12,0 9,2 11 6 26 14 NE 1018,4 10 0,0
12.06.2018 22:00:00 12,6 9,1 12 6 38 20 NE 1017,8 - 0,0
12.06.2018 21:00:00 13,8 9,0 15 8 41 22 NE 1017,1 - 0,0
12.06.2018 20:00:00 14,8 8,9 21 11 43 23 NE 1016,8 15 0,0
12.06.2018 19:00:00 15,6 8,8 21 11 45 24 NE 1016,5 - 0,0
12.06.2018 18:00:00 16,5 10,1 16 8 45 25 NE 1016,6 - 0,0
12.06.2018 17:00:00 15,7 11,5 21 11 46 25 NNE 1016,6 8 0,0
12.06.2018 16:00:00 15,7 11,1 24 13 46 25 NNE 1016,3 - 0,0
12.06.2018 15:00:00 15,5 11,9 24 13 43 23 NNE 1015,9 - 0,0
12.06.2018 14:00:00 15,1 12,2 22 12 47 25 NNE 1015,7 10 0,0
12.06.2018 13:00:00 15,6 12,2 22 12 43 23 NNE 1015,3 - 0,0

tt = Température de l'air
td = dewpoint
ff = Vitesse du vent
fx = gusts
dd = Direction du vent
ppp = reduced air pressure
vv = visibility
rr = Quantités de précipitations

stations d'obs. à proximité